,,,PA_Meas_PMT16A,,PR_Meas_QMR101_102,,RH_Meas_QMH101,,SR_Meas_QMS101,,TA_Meas_QMH101,,GenWind,,GenWind,
date,time,status,PA,status,PR,status,RH,status,SR,status,TA,status,DirAvg,status,SpdAvg,
2011-07-04, 00:00:04,VALID,1000.85,VALID,0,VALID,62.5171,VALID,0,VALID,26.6685,VALID,193,VALID,1.60391,
2011-07-04, 00:01:04,VALID,1000.83,VALID,0,VALID,62.3798,VALID,0,VALID,26.6665,VALID,199,VALID,1.89297,
2011-07-04, 00:02:05,VALID,1000.84,VALID,0,VALID,62.601,VALID,0,VALID,26.6274,VALID,190,VALID,1.50117,
2011-07-04, 00:03:05,VALID,1000.85,VALID,0,VALID,62.8528,VALID,0,VALID,26.6079,VALID,172,VALID,1.69375,
2011-07-04, 00:04:05,VALID,1000.84,VALID,0,VALID,63.0436,VALID,0,VALID,26.5884,VALID,182,VALID,2.40781,
2011-07-04, 00:05:05,VALID,1000.81,VALID,0,VALID,63.0664,VALID,0,VALID,26.5884,VALID,206,VALID,2.68672,
2011-07-04, 00:06:05,VALID,1000.82,VALID,0,VALID,63.0817,VALID,0,VALID,26.6079,VALID,208,VALID,2.81992,
2011-07-04, 00:07:05,VALID,1000.84,VALID,0,VALID,62.952,VALID,0,VALID,26.6469,VALID,204,VALID,2.32344,
2011-07-04, 00:08:05,VALID,1000.81,VALID,0,VALID,63.1961,VALID,0,VALID,26.6685,VALID,192,VALID,2.15273,
2011-07-04, 00:09:05,VALID,1000.76,VALID,0,VALID,63.1275,VALID,0,VALID,26.649,VALID,194,VALID,2.45391,
2011-07-04, 00:10:05,VALID,1000.75,VALID,0,VALID,63.2419,VALID,0,VALID,26.6079,VALID,171,VALID,2.71953,
2011-07-04, 00:11:05,VALID,1000.72,VALID,0,VALID,63.5547,VALID,0,VALID,26.5688,VALID,169,VALID,2.38906,
2011-07-04, 00:12:05,VALID,1000.68,VALID,0,VALID,63.7989,VALID,0,VALID,26.5318,VALID,192,VALID,2.72109,
2011-07-04, 00:13:05,VALID,1000.7,VALID,0,VALID,63.8523,VALID,0,VALID,26.5318,VALID,181,VALID,2.29531,
2011-07-04, 00:14:05,VALID,1000.66,VALID,0,VALID,63.8675,VALID,0,VALID,26.4907,VALID,178,VALID,2.42969,
2011-07-04, 00:15:05,VALID,1000.6,VALID,0,VALID,64.0583,VALID,0,VALID,26.5298,VALID,161,VALID,3.43203,
2011-07-04, 00:16:05,VALID,1000.6,VALID,0,VALID,63.921,VALID,0,VALID,26.5688,VALID,178,VALID,3.9,
2011-07-04, 00:17:05,VALID,1000.58,VALID,0,VALID,63.3487,VALID,0,VALID,26.7076,VALID,181,VALID,4.45117,
2011-07-04, 00:18:05,VALID,1000.57,VALID,0,VALID,63.303,VALID,0,VALID,26.7661,VALID,176,VALID,2.15625,
2011-07-04, 00:19:05,VALID,1000.56,VALID,0,VALID,63.2953,VALID,0,VALID,26.7251,VALID,210,VALID,1.95742,
2011-07-04, 00:20:05,VALID,1000.53,VALID,0,VALID,63.425,VALID,0,VALID,26.7251,VALID,192,VALID,2.10586,
2011-07-04, 00:21:05,VALID,1000.53,VALID,0,VALID,63.6463,VALID,0,VALID,26.7466,VALID,179,VALID,2.97852,
2011-07-04, 00:22:05,VALID,1000.52,VALID,0,VALID,63.7073,VALID,0,VALID,26.7446,VALID,169,VALID,3.08906,
2011-07-04, 00:23:05,VALID,1000.55,VALID,0,VALID,63.837,VALID,0,VALID,26.7661,VALID,175,VALID,3.46172,
2011-07-04, 00:24:05,VALID,1000.5,VALID,0,VALID,63.8065,VALID,0,VALID,26.7466,VALID,168,VALID,3.67617,
2011-07-04, 00:25:05,VALID,1000.5,VALID,0,VALID,63.8981,VALID,0,VALID,26.7466,VALID,162,VALID,2.82344,
2011-07-04, 00:26:05,VALID,1000.49,VALID,0,VALID,64.0507,VALID,0,VALID,26.686,VALID,173,VALID,3.06562,
2011-07-04, 00:27:05,VALID,1000.45,VALID,0,VALID,63.7913,VALID,0,VALID,26.7076,VALID,169,VALID,3.60195,
2011-07-04, 00:28:05,VALID,1000.44,VALID,0,VALID,63.7073,VALID,0,VALID,26.8052,VALID,182,VALID,4.19102,
2011-07-04, 00:29:05,VALID,1000.45,VALID,0,VALID,63.4403,VALID,0,VALID,26.8638,VALID,184,VALID,4.40352,
2011-07-04, 00:30:05,VALID,1000.43,VALID,0,VALID,63.3106,VALID,0,VALID,26.8813,VALID,183,VALID,4.37891,
2011-07-04, 00:31:05,VALID,1000.37,VALID,0,VALID,62.746,VALID,0.112286,VALID,26.9789,VALID,180,VALID,4.56367,
2011-07-04, 00:32:05,VALID,1000.37,VALID,0,VALID,62.6315,VALID,0,VALID,26.9964,VALID,172,VALID,4.09766,
2011-07-04, 00:33:05,VALID,1000.37,VALID,0,VALID,62.8299,VALID,0,VALID,26.9985,VALID,179,VALID,4.55156,
2011-07-04, 00:34:05,VALID,1000.35,VALID,0,VALID,62.5247,VALID,0,VALID,27.0571,VALID,194,VALID,5.28242,
2011-07-04, 00:35:05,VALID,1000.35,VALID,0,VALID,62.6163,VALID,0.112286,VALID,27.0571,VALID,173,VALID,5.41484,
2011-07-04, 00:36:05,VALID,1000.26,VALID,0,VALID,62.334,VALID,0,VALID,27.0375,VALID,162,VALID,4.70937,
2011-07-04, 00:37:05,VALID,1000.16,VALID,0,VALID,62.2348,VALID,0,VALID,27.055,VALID,190,VALID,5.6668,
2011-07-04, 00:38:05,VALID,1000.28,VALID,0,VALID,62.334,VALID,0.112286,VALID,27.0745,VALID,186,VALID,5.26406,
2011-07-04, 00:39:05,VALID,1000.26,VALID,0,VALID,62.1585,VALID,0,VALID,27.1157,VALID,157,VALID,4.15703,
2011-07-04, 00:40:05,VALID,1000.29,VALID,0,VALID,61.9983,VALID,0,VALID,27.1136,VALID,173,VALID,3.77617,
2011-07-04, 00:41:05,VALID,1000.3,VALID,0,VALID,62.2424,VALID,0.112286,VALID,27.1157,VALID,174,VALID,3.74805,
2011-07-04, 00:42:05,VALID,1000.19,VALID,0,VALID,62.1433,VALID,0,VALID,27.0355,VALID,163,VALID,3.41797,
2011-07-04, 00:43:05,VALID,1000.27,VALID,0,VALID,62.4637,VALID,0.112286,VALID,27.0571,VALID,178,VALID,3.46406,
2011-07-04, 00:44:05,VALID,1000.24,VALID,0,VALID,61.6473,VALID,0,VALID,27.0571,VALID,179,VALID,5.50938,
2011-07-04, 00:45:05,VALID,1000.26,VALID,0,VALID,62.1738,VALID,0,VALID,27.0961,VALID,184,VALID,3.59219,
2011-07-04, 00:46:05,VALID,1000.27,VALID,0,VALID,61.8152,VALID,0,VALID,27.0375,VALID,172,VALID,3.74648,
2011-07-04, 00:47:05,VALID,1000.26,VALID,0,VALID,62.1433,VALID,0,VALID,27.0591,VALID,177,VALID,3.66445,
2011-07-04, 00:48:05,VALID,1000.25,VALID,0,VALID,62.6468,VALID,0,VALID,26.981,VALID,179,VALID,1.94375,
2011-07-04, 00:49:05,VALID,1000.23,VALID,0,VALID,62.5781,VALID,0,VALID,26.9204,VALID,187,VALID,2.70234,
2011-07-04, 00:50:05,VALID,1000.21,VALID,0,VALID,62.5324,VALID,0,VALID,26.9204,VALID,187,VALID,3.89492,
2011-07-04, 00:51:05,VALID,1000.22,VALID,0,VALID,62.2196,VALID,0,VALID,26.9419,VALID,178,VALID,3.25586,
2011-07-04, 00:52:05,VALID,1000.18,VALID,0,VALID,61.9525,VALID,0,VALID,27.0201,VALID,167,VALID,4.54141,
2011-07-04, 00:53:05,VALID,1000.19,VALID,0,VALID,62.3569,VALID,0,VALID,26.981,VALID,168,VALID,3.11797,
2011-07-04, 00:54:05,VALID,1000.21,VALID,0,VALID,62.2348,VALID,0,VALID,26.9399,VALID,184,VALID,2.87383,
2011-07-04, 00:55:05,VALID,1000.23,VALID,0,VALID,62.6087,VALID,0,VALID,26.9204,VALID,161,VALID,3.59141,
2011-07-04, 00:56:05,VALID,1000.23,VALID,0,VALID,62.4256,VALID,0,VALID,26.9029,VALID,181,VALID,2.72813,
2011-07-04, 00:57:05,VALID,1000.26,VALID,0,VALID,62.7307,VALID,0,VALID,26.8618,VALID,191,VALID,1.95195,
2011-07-04, 00:58:05,VALID,1000.22,VALID,0,VALID,62.6926,VALID,0,VALID,26.8052,VALID,186,VALID,2.89609,
2011-07-04, 00:59:05,VALID,1000.21,VALID,0,VALID,62.8376,VALID,0,VALID,26.8227,VALID,178,VALID,2.90117,
2011-07-04, 01:00:05,VALID,1000.22,VALID,0,VALID,63.1427,VALID,0,VALID,26.7641,VALID,162,VALID,2.52852,
2011-07-04, 01:01:05,VALID,1000.21,VALID,0,VALID,62.9978,VALID,0,VALID,26.7055,VALID,181,VALID,2.63789,
2011-07-04, 01:02:05,VALID,1000.16,VALID,0,VALID,62.6697,VALID,0,VALID,26.7446,VALID,169,VALID,4.73672,
2011-07-04, 01:03:05,VALID,1000.15,VALID,0,VALID,62.5324,VALID,0,VALID,26.8247,VALID,179,VALID,4.16289,
2011-07-04, 01:04:05,VALID,1000.11,VALID,0,VALID,62.1127,VALID,0,VALID,26.8833,VALID,178,VALID,4.07109,
2011-07-04, 01:05:05,VALID,1000.15,VALID,0,VALID,62.0288,VALID,0,VALID,26.9008,VALID,172,VALID,4.21055,
2011-07-04, 01:06:05,VALID,1000.18,VALID,0,VALID,62.0898,VALID,0,VALID,26.9204,VALID,182,VALID,3.68008,
2011-07-04, 01:07:05,VALID,1000.18,VALID,0,VALID,61.9601,VALID,0,VALID,26.9399,VALID,181,VALID,4.43203,
2011-07-04, 01:08:05,VALID,1000.16,VALID,0,VALID,62.0746,VALID,0,VALID,26.9204,VALID,174,VALID,5.72539,
2011-07-04, 01:09:05,VALID,1000.14,VALID,0,VALID,61.8533,VALID,0,VALID,27.0005,VALID,176,VALID,4.89727,
2011-07-04, 01:10:05,VALID,1000.18,VALID,0,VALID,62.2806,VALID,0,VALID,26.9789,VALID,168,VALID,3.31914,
2011-07-04, 01:11:05,VALID,1000.16,VALID,0,VALID,62.6697,VALID,0,VALID,26.8618,VALID,160,VALID,3.36523,
2011-07-04, 01:12:05,VALID,1000.11,VALID,0,VALID,62.7994,VALID,0,VALID,26.8032,VALID,167,VALID,3.55703,
2011-07-04, 01:13:05,VALID,1000.11,VALID,0,VALID,62.6239,VALID,0,VALID,26.8227,VALID,173,VALID,4.02773,
2011-07-04, 01:14:05,VALID,1000.1,VALID,0,VALID,62.7002,VALID,0,VALID,26.8227,VALID,172,VALID,4.7668,
2011-07-04, 01:15:05,VALID,1000.09,VALID,0,VALID,62.5934,VALID,0,VALID,26.8422,VALID,167,VALID,3.9707,
2011-07-04, 01:16:05,VALID,1000.1,VALID,0,VALID,62.6468,VALID,0,VALID,26.8833,VALID,172,VALID,4.02891,
2011-07-04, 01:17:05,VALID,1000.06,VALID,0,VALID,62.5934,VALID,0,VALID,26.8422,VALID,156,VALID,3.70547,
2011-07-04, 01:18:05,VALID,1000.1,VALID,0,VALID,63.1198,VALID,0,VALID,26.7857,VALID,172,VALID,2.79375,
2011-07-04, 01:19:05,VALID,1000.08,VALID,0,VALID,62.807,VALID,0,VALID,26.7446,VALID,170,VALID,3.85117,
2011-07-04, 01:20:05,VALID,1000.06,VALID,0,VALID,62.9749,VALID,0,VALID,26.7857,VALID,187,VALID,3.02461,
2011-07-04, 01:21:05,VALID,1000.07,VALID,0,VALID,63.3106,VALID,0,VALID,26.7446,VALID,142,VALID,2.52148,
2011-07-04, 01:22:05,VALID,1000.05,VALID,0,VALID,63.1809,VALID,0,VALID,26.6469,VALID,162,VALID,2.84336,
2011-07-04, 01:23:05,VALID,1000.07,VALID,0,VALID,62.8833,VALID,0,VALID,26.6294,VALID,174,VALID,3.73945,
2011-07-04, 01:24:05,VALID,1000.01,VALID,0,VALID,62.395,VALID,0,VALID,26.6665,VALID,171,VALID,4.80039,
2011-07-04, 01:25:05,VALID,999.99,VALID,0,VALID,62.3798,VALID,0,VALID,26.7641,VALID,185,VALID,4.275,
2011-07-04, 01:26:05,VALID,1000.02,VALID,0,VALID,62.4561,VALID,0,VALID,26.8227,VALID,165,VALID,2.91211,
2011-07-04, 01:27:05,VALID,999.983,VALID,0,VALID,62.5324,VALID,0,VALID,26.7641,VALID,166,VALID,2.49922,
2011-07-04, 01:28:05,VALID,1000,VALID,0,VALID,62.8833,VALID,0,VALID,26.7055,VALID,177,VALID,3.03516,
2011-07-04, 01:29:05,VALID,999.926,VALID,0,VALID,62.8376,VALID,0,VALID,26.7055,VALID,161,VALID,3.46172,
2011-07-04, 01:30:05,VALID,999.97,VALID,0,VALID,63.2343,VALID,0,VALID,26.7271,VALID,166,VALID,5.05781,
2011-07-04, 01:31:05,VALID,999.959,VALID,0,VALID,63.158,VALID,0,VALID,26.7857,VALID,168,VALID,4.22813,
2011-07-04, 01:32:05,VALID,999.977,VALID,0,VALID,62.9749,VALID,0,VALID,26.7641,VALID,160,VALID,3.90156,
2011-07-04, 01:33:05,VALID,1000.01,VALID,0,VALID,63.0283,VALID,0,VALID,26.7836,VALID,178,VALID,4.73359,
2011-07-04, 01:34:05,VALID,999.981,VALID,0,VALID,62.273,VALID,0,VALID,26.8032,VALID,156,VALID,5.84141,
2011-07-04, 01:35:05,VALID,1000.01,VALID,0,VALID,62.8528,VALID,0,VALID,26.8032,VALID,170,VALID,3.95078,
2011-07-04, 01:36:05,VALID,999.962,VALID,0,VALID,61.9144,VALID,0,VALID,26.8247,VALID,174,VALID,5.35938,
2011-07-04, 01:37:05,VALID,999.947,VALID,0,VALID,61.5787,VALID,0,VALID,26.8813,VALID,180,VALID,5.70195,
2011-07-04, 01:38:05,VALID,1000.01,VALID,0,VALID,61.716,VALID,0,VALID,26.8813,VALID,171,VALID,4.42617,
2011-07-04, 01:39:05,VALID,999.917,VALID,0,VALID,61.6321,VALID,0,VALID,26.9204,VALID,171,VALID,3.68242,
2011-07-04, 01:40:05,VALID,999.945,VALID,0,VALID,61.716,VALID,0,VALID,26.8813,VALID,178,VALID,3.80117,
2011-07-04, 01:41:05,VALID,999.943,VALID,0,VALID,61.8839,VALID,0,VALID,26.8618,VALID,175,VALID,4.05234,
2011-07-04, 01:42:05,VALID,999.939,VALID,0,VALID,61.6473,VALID,0,VALID,26.8833,VALID,179,VALID,5.06172,
2011-07-04, 01:43:05,VALID,999.923,VALID,0,VALID,61.8457,VALID,0,VALID,26.8813,VALID,183,VALID,4.63477,
2011-07-04, 01:44:05,VALID,999.953,VALID,0,VALID,61.9525,VALID,0,VALID,26.8422,VALID,179,VALID,4.64453,
2011-07-04, 01:45:05,VALID,999.869,VALID,0,VALID,61.7389,VALID,0,VALID,26.8227,VALID,178,VALID,4.64453,
2011-07-04, 01:46:05,VALID,999.885,VALID,0,VALID,61.4566,VALID,0,VALID,26.8833,VALID,173,VALID,4.16563,
2011-07-04, 01:47:05,VALID,999.886,VALID,0,VALID,61.0446,VALID,0,VALID,26.9399,VALID,174,VALID,6.07539,
2011-07-04, 01:48:05,VALID,999.925,VALID,0,VALID,61.4337,VALID,0,VALID,26.9419,VALID,183,VALID,3.89219,
2011-07-04, 01:49:05,VALID,999.897,VALID,0,VALID,60.9759,VALID,0,VALID,26.9399,VALID,177,VALID,4.97148,
2011-07-04, 01:50:05,VALID,999.867,VALID,0,VALID,60.8996,VALID,0,VALID,26.9594,VALID,169,VALID,3.53594,
2011-07-04, 01:51:05,VALID,999.901,VALID,0,VALID,60.8462,VALID,0,VALID,26.9419,VALID,174,VALID,4.70625,
2011-07-04, 01:52:05,VALID,999.864,VALID,0,VALID,60.6173,VALID,0,VALID,26.9789,VALID,179,VALID,5.14414,
2011-07-04, 01:53:05,VALID,999.847,VALID,0,VALID,60.3503,VALID,0,VALID,27.018,VALID,150,VALID,5.34141,
2011-07-04, 01:54:05,VALID,999.852,VALID,0,VALID,60.3732,VALID,0,VALID,27.0201,VALID,182,VALID,5.73359,
2011-07-04, 01:55:05,VALID,999.832,VALID,0,VALID,60.3884,VALID,0,VALID,27.018,VALID,172,VALID,5.24414,
2011-07-04, 01:56:05,VALID,999.799,VALID,0,VALID,60.2587,VALID,0,VALID,26.9985,VALID,150,VALID,6.17227,
2011-07-04, 01:57:05,VALID,999.813,VALID,0,VALID,60.0833,VALID,0,VALID,27.018,VALID,173,VALID,6.91133,
2011-07-04, 01:58:05,VALID,999.813,VALID,0,VALID,59.9383,VALID,0,VALID,27.0961,VALID,166,VALID,6.13359,
2011-07-04, 01:59:05,VALID,999.781,VALID,0,VALID,60.0222,VALID,0,VALID,27.0766,VALID,170,VALID,5.22578,
2011-07-04, 02:00:05,VALID,999.748,VALID,0,VALID,59.8544,VALID,0,VALID,27.0961,VALID,164,VALID,5.7043,
2011-07-04, 02:01:05,VALID,999.773,VALID,0,VALID,60.0909,VALID,0.112286,VALID,27.1157,VALID,173,VALID,4.45898,
2011-07-04, 02:02:05,VALID,999.76,VALID,0,VALID,60.4876,VALID,0,VALID,27.016,VALID,180,VALID,3.29492,
2011-07-04, 02:03:05,VALID,999.716,VALID,0,VALID,60.8386,VALID,0,VALID,26.9789,VALID,167,VALID,3.02852,
2011-07-04, 02:04:05,VALID,999.738,VALID,0,VALID,61.2353,VALID,0.112286,VALID,26.9399,VALID,161,VALID,3.72344,
2011-07-04, 02:05:05,VALID,999.755,VALID,0,VALID,61.4032,VALID,0,VALID,26.8813,VALID,161,VALID,3.31797,
2011-07-04, 02:06:05,VALID,999.712,VALID,0,VALID,60.9759,VALID,0.112286,VALID,26.8597,VALID,169,VALID,5.57305,
2011-07-04, 02:07:05,VALID,999.671,VALID,0,VALID,60.8386,VALID,0.112286,VALID,26.9399,VALID,159,VALID,4.78125,
2011-07-04, 02:08:05,VALID,999.717,VALID,0,VALID,60.9836,VALID,0.112286,VALID,26.8988,VALID,168,VALID,3.56914,
2011-07-04, 02:09:05,VALID,999.71,VALID,0,VALID,60.8844,VALID,0.112286,VALID,26.9378,VALID,163,VALID,4.98828,
2011-07-04, 02:10:05,VALID,999.688,VALID,0,VALID,60.8004,VALID,0,VALID,26.9378,VALID,148,VALID,5.05,
2011-07-04, 02:11:05,VALID,999.709,VALID,0,VALID,60.7776,VALID,0,VALID,26.9574,VALID,155,VALID,4.6168,
2011-07-04, 02:12:05,VALID,999.708,VALID,0,VALID,60.8539,VALID,0.112286,VALID,26.9964,VALID,171,VALID,5.68984,
2011-07-04, 02:13:05,VALID,999.694,VALID,0,VALID,60.7318,VALID,0,VALID,27.016,VALID,148,VALID,4.57305,
2011-07-04, 02:14:05,VALID,999.753,VALID,0,VALID,60.9301,VALID,0,VALID,27.016,VALID,161,VALID,3.86602,
2011-07-04, 02:15:05,VALID,999.741,VALID,0,VALID,60.8157,VALID,0,VALID,27.0355,VALID,163,VALID,4.87109,
2011-07-04, 02:16:05,VALID,999.783,VALID,0,VALID,60.9454,VALID,0,VALID,27.0396,VALID,167,VALID,3.80312,
2011-07-04, 02:17:05,VALID,999.781,VALID,0,VALID,61.1667,VALID,0,VALID,26.9789,VALID,161,VALID,3.48438,
2011-07-04, 02:18:05,VALID,999.784,VALID,0,VALID,61.2887,VALID,0,VALID,26.9789,VALID,166,VALID,2.84102,
2011-07-04, 02:19:05,VALID,999.773,VALID,0,VALID,61.1361,VALID,0,VALID,26.9789,VALID,173,VALID,4.77422,
2011-07-04, 02:20:05,VALID,999.782,VALID,0,VALID,61.0751,VALID,0,VALID,27.0375,VALID,171,VALID,3.48867,
2011-07-04, 02:21:05,VALID,999.793,VALID,0,VALID,61.0446,VALID,0,VALID,27.018,VALID,156,VALID,3.92891,
2011-07-04, 02:22:05,VALID,999.744,VALID,0,VALID,61.2353,VALID,0,VALID,26.9789,VALID,174,VALID,4.04102,
2011-07-04, 02:23:05,VALID,999.757,VALID,0,VALID,61.571,VALID,0,VALID,27.0005,VALID,189,VALID,3.51875,
2011-07-04, 02:24:05,VALID,999.714,VALID,0,VALID,61.3269,VALID,0,VALID,26.9789,VALID,187,VALID,4.93398,
2011-07-04, 02:25:05,VALID,999.758,VALID,0,VALID,61.2887,VALID,0,VALID,27.018,VALID,179,VALID,4.8793,
2011-07-04, 02:26:05,VALID,999.776,VALID,0,VALID,61.365,VALID,0,VALID,27.018,VALID,165,VALID,3.77695,
2011-07-04, 02:27:05,VALID,999.758,VALID,0,VALID,61.2582,VALID,0,VALID,27.018,VALID,173,VALID,6.21562,
2011-07-04, 02:28:05,VALID,999.789,VALID,0,VALID,61.0217,VALID,0,VALID,27.0591,VALID,197,VALID,4.98945,
2011-07-04, 02:29:05,VALID,999.794,VALID,0,VALID,61.2124,VALID,0,VALID,27.0766,VALID,184,VALID,4.73164,
2011-07-04, 02:30:05,VALID,999.809,VALID,0,VALID,61.3345,VALID,0,VALID,27.0571,VALID,177,VALID,4.13906,
2011-07-04, 02:31:05,VALID,999.82,VALID,0,VALID,61.5558,VALID,0.112286,VALID,27.016,VALID,180,VALID,3.4457,
2011-07-04, 02:32:05,VALID,999.788,VALID,0,VALID,61.0446,VALID,0.112286,VALID,26.9769,VALID,170,VALID,4.57461,
2011-07-04, 02:33:05,VALID,999.804,VALID,0,VALID,61.0904,VALID,0,VALID,27.018,VALID,179,VALID,5.1207,
2011-07-04, 02:34:05,VALID,999.78,VALID,0,VALID,61.159,VALID,0,VALID,26.9964,VALID,183,VALID,3.89687,
2011-07-04, 02:35:05,VALID,999.757,VALID,0,VALID,61.2659,VALID,0,VALID,26.9985,VALID,192,VALID,2.96953,
2011-07-04, 02:36:05,VALID,999.722,VALID,0,VALID,61.2124,VALID,0,VALID,26.9594,VALID,178,VALID,4.64063,
2011-07-04, 02:37:05,VALID,999.749,VALID,0,VALID,61.6016,VALID,0,VALID,26.9378,VALID,183,VALID,3.7043,
2011-07-04, 02:38:05,VALID,999.73,VALID,0,VALID,60.8233,VALID,0,VALID,26.9574,VALID,180,VALID,5.16484,
2011-07-04, 02:39:05,VALID,999.753,VALID,0,VALID,60.8386,VALID,0.112286,VALID,27.016,VALID,179,VALID,3.23906,
2011-07-04, 02:40:05,VALID,999.748,VALID,0,VALID,60.831,VALID,0,VALID,27.0571,VALID,175,VALID,3.59414,
2011-07-04, 02:41:05,VALID,999.778,VALID,0,VALID,60.7852,VALID,0,VALID,27.018,VALID,171,VALID,3.11875,
2011-07-04, 02:42:05,VALID,999.777,VALID,0,VALID,60.8233,VALID,0,VALID,27.0571,VALID,198,VALID,2.95586,
2011-07-04, 02:43:05,VALID,999.794,VALID,0,VALID,60.7699,VALID,0,VALID,27.0571,VALID,182,VALID,3.24648,
2011-07-04, 02:44:05,VALID,999.808,VALID,0,VALID,60.9607,VALID,0,VALID,27.0375,VALID,172,VALID,4.17383,
2011-07-04, 02:45:04,VALID,999.802,VALID,0,VALID,60.9759,VALID,0,VALID,26.981,VALID,155,VALID,3.83008,
2011-07-04, 02:46:04,VALID,999.786,VALID,0,VALID,60.48,VALID,0,VALID,27.055,VALID,170,VALID,4.88984,
2011-07-04, 02:47:04,VALID,999.857,VALID,0,VALID,60.4953,VALID,0,VALID,27.1157,VALID,173,VALID,4.86797,
2011-07-04, 02:48:04,VALID,999.792,VALID,0,VALID,60.5029,VALID,0,VALID,27.1352,VALID,189,VALID,5.25977,
2011-07-04, 02:49:04,VALID,999.822,VALID,0,VALID,60.831,VALID,0,VALID,27.0745,VALID,203,VALID,2.71836,
2011-07-04, 02:50:04,VALID,999.802,VALID,0,VALID,60.5029,VALID,0,VALID,27.0961,VALID,172,VALID,4.04922,
2011-07-04, 02:51:04,VALID,999.894,VALID,0,VALID,60.8081,VALID,0,VALID,27.0745,VALID,169,VALID,3.08281,
2011-07-04, 02:52:04,VALID,999.907,VALID,0,VALID,60.8691,VALID,0,VALID,27.0375,VALID,183,VALID,3.40469,
2011-07-04, 02:53:04,VALID,999.859,VALID,0,VALID,60.6936,VALID,0,VALID,27.0375,VALID,160,VALID,3.2793,
2011-07-04, 02:54:04,VALID,999.876,VALID,0,VALID,60.8462,VALID,0,VALID,27.018,VALID,174,VALID,2.71289,
2011-07-04, 02:55:04,VALID,999.895,VALID,0,VALID,61.0522,VALID,0,VALID,26.9985,VALID,165,VALID,2.40977,
2011-07-04, 02:56:04,VALID,999.893,VALID,0,VALID,61.3116,VALID,0,VALID,26.9594,VALID,173,VALID,3.72852,
2011-07-04, 02:57:04,VALID,999.87,VALID,0,VALID,61.0446,VALID,0,VALID,26.9399,VALID,179,VALID,3.4082,
2011-07-04, 02:58:04,VALID,999.902,VALID,0,VALID,61.1514,VALID,0,VALID,26.9399,VALID,171,VALID,3.82734,
2011-07-04, 02:59:04,VALID,999.901,VALID,0,VALID,61.3421,VALID,0,VALID,26.9204,VALID,189,VALID,3.68164,
2011-07-04, 03:00:04,VALID,999.906,VALID,0,VALID,61.098,VALID,0,VALID,26.9789,VALID,182,VALID,4.08242,
2011-07-04, 03:01:04,VALID,999.911,VALID,0,VALID,61.0675,VALID,0,VALID,26.9378,VALID,178,VALID,3.22773,
2011-07-04, 03:02:04,VALID,999.912,VALID,0,VALID,60.686,VALID,0,VALID,26.9789,VALID,174,VALID,4.11289,
2011-07-04, 03:03:04,VALID,999.899,VALID,0,VALID,60.5868,VALID,0,VALID,27.018,VALID,188,VALID,4.28047,
2011-07-04, 03:04:04,VALID,999.945,VALID,0,VALID,60.5792,VALID,0,VALID,27.0375,VALID,192,VALID,4.07188,
2011-07-04, 03:05:04,VALID,999.977,VALID,0,VALID,60.7241,VALID,0,VALID,27.0571,VALID,185,VALID,4.03984,
2011-07-04, 03:06:04,VALID,999.953,VALID,0,VALID,60.4876,VALID,0,VALID,27.0766,VALID,172,VALID,5.37227,
2011-07-04, 03:07:04,VALID,999.954,VALID,0,VALID,60.5258,VALID,0,VALID,27.0571,VALID,163,VALID,3.6543,
2011-07-04, 03:08:04,VALID,999.974,VALID,0,VALID,60.7623,VALID,0,VALID,27.018,VALID,168,VALID,3.12031,
2011-07-04, 03:09:04,VALID,1000.03,VALID,0,VALID,60.6479,VALID,0,VALID,26.9769,VALID,179,VALID,4.41523,
2011-07-04, 03:10:04,VALID,1000.05,VALID,0,VALID,60.7699,VALID,0,VALID,27.018,VALID,178,VALID,2.81875,
2011-07-04, 03:11:04,VALID,1000.03,VALID,0,VALID,60.6402,VALID,0,VALID,27.018,VALID,179,VALID,3.05195,
2011-07-04, 03:12:04,VALID,1000.06,VALID,0,VALID,61.0217,VALID,0,VALID,26.9789,VALID,187,VALID,2.88438,
2011-07-04, 03:13:04,VALID,1000.05,VALID,0,VALID,60.8844,VALID,0,VALID,26.9789,VALID,205,VALID,2.4082,
2011-07-04, 03:14:04,VALID,1000.02,VALID,0,VALID,61.2124,VALID,0,VALID,26.9594,VALID,220,VALID,2.4207,
2011-07-04, 03:15:04,VALID,1000.02,VALID,0,VALID,61.4108,VALID,0,VALID,26.9204,VALID,194,VALID,2.88555,
2011-07-04, 03:16:04,VALID,999.996,VALID,0,VALID,61.4642,VALID,0.112286,VALID,26.9204,VALID,228,VALID,2.44688,
2011-07-04, 03:17:04,VALID,999.976,VALID,0,VALID,61.5634,VALID,0,VALID,26.8618,VALID,193,VALID,2.71992,
2011-07-04, 03:18:04,VALID,999.994,VALID,0,VALID,61.7236,VALID,0,VALID,26.8422,VALID,176,VALID,2.13633,
2011-07-04, 03:19:04,VALID,1000,VALID,0,VALID,61.8228,VALID,0,VALID,26.8207,VALID,189,VALID,2.51992,
2011-07-04, 03:20:04,VALID,999.991,VALID,0,VALID,61.7007,VALID,0,VALID,26.8207,VALID,196,VALID,2.37422,
2011-07-04, 03:21:04,VALID,1000,VALID,0,VALID,61.9067,VALID,0,VALID,26.8207,VALID,194,VALID,2.74766,
2011-07-04, 03:22:04,VALID,1000.01,VALID,0,VALID,61.8762,VALID,0,VALID,26.8011,VALID,185,VALID,3.31836,
2011-07-04, 03:23:04,VALID,999.996,VALID,0,VALID,61.6702,VALID,0,VALID,26.8618,VALID,214,VALID,2.48164,
2011-07-04, 03:24:04,VALID,999.965,VALID,0,VALID,62.0059,VALID,0,VALID,26.8422,VALID,195,VALID,2.03828,
2011-07-04, 03:25:04,VALID,999.971,VALID,0,VALID,61.9983,VALID,0,VALID,26.8032,VALID,194,VALID,2.2582,
2011-07-04, 03:26:04,VALID,999.934,VALID,0,VALID,62.4027,VALID,0,VALID,26.8011,VALID,209,VALID,1.13984,
2011-07-04, 03:27:04,VALID,999.945,VALID,0,VALID,62.3798,VALID,0,VALID,26.7426,VALID,224,VALID,1.23047,
2011-07-04, 03:28:04,VALID,999.955,VALID,0,VALID,63.0054,VALID,0,VALID,26.6644,VALID,196,VALID,1.06914,
2011-07-04, 03:29:04,VALID,999.971,VALID,0,VALID,62.7918,VALID,0,VALID,26.6254,VALID,194,VALID,2.33164,
2011-07-04, 03:30:04,VALID,1000.01,VALID,0,VALID,62.891,VALID,0,VALID,26.6274,VALID,173,VALID,2.62266,
2011-07-04, 03:31:04,VALID,999.981,VALID,0,VALID,62.9138,VALID,0.112286,VALID,26.6469,VALID,181,VALID,3.40117,
2011-07-04, 03:32:04,VALID,999.935,VALID,0,VALID,62.5247,VALID,0,VALID,26.7035,VALID,185,VALID,4.69258,
2011-07-04, 03:33:04,VALID,999.939,VALID,0,VALID,62.0517,VALID,0.112286,VALID,26.8207,VALID,174,VALID,4.0707,
2011-07-04, 03:34:04,VALID,999.968,VALID,0,VALID,62.3721,VALID,0.112286,VALID,26.8207,VALID,186,VALID,3.17031,
2011-07-04, 03:35:04,VALID,999.963,VALID,0,VALID,62.5171,VALID,0.112286,VALID,26.8207,VALID,185,VALID,3.72461,
2011-07-04, 03:36:04,VALID,999.953,VALID,0,VALID,62.6773,VALID,0,VALID,26.7816,VALID,179,VALID,2.64414,
2011-07-04, 03:37:04,VALID,999.959,VALID,0,VALID,62.8528,VALID,0,VALID,26.7836,VALID,186,VALID,2.93008,
2011-07-04, 03:38:04,VALID,999.911,VALID,0,VALID,62.6239,VALID,0.112286,VALID,26.7426,VALID,179,VALID,2.96328,
2011-07-04, 03:39:04,VALID,999.941,VALID,0,VALID,62.8147,VALID,0.112286,VALID,26.7426,VALID,184,VALID,2.43359,
2011-07-04, 03:40:04,VALID,999.907,VALID,0,VALID,63.097,VALID,0.112286,VALID,26.7035,VALID,187,VALID,2.34727,
2011-07-04, 03:41:04,VALID,999.948,VALID,0,VALID,63.2267,VALID,0.112286,VALID,26.686,VALID,167,VALID,2.48711,
2011-07-04, 03:42:04,VALID,999.958,VALID,0,VALID,63.4708,VALID,0,VALID,26.6254,VALID,187,VALID,3.88906,
2011-07-04, 03:43:04,VALID,999.945,VALID,0,VALID,63.2419,VALID,0.112286,VALID,26.686,VALID,198,VALID,3.17656,
2011-07-04, 03:44:04,VALID,999.968,VALID,0,VALID,63.3335,VALID,0,VALID,26.6449,VALID,165,VALID,3.12188,
2011-07-04, 03:45:04,VALID,999.938,VALID,0,VALID,63.219,VALID,0,VALID,26.6254,VALID,169,VALID,3.98008,